[[{"header":{"parameterUnit":"m.s-1","parameterCategory":1,"la1":30.2991,"la2":30.254,"lo1":-89.0895,"lo2":-89.0444,"dy":0.0017,"dx":0.0017,"nx":28,"ny":28,"refTime":"2025-07-29T03:00:00:Z","depth":0,"parameterNumber":2,"parameterNumberName":"U-component_of_WINDS"},"data":[0,0,0,0,0,0,0,0,0,0,0,0,0,0,0,0,0,0,0,0,0,0,0,0,0,0,0,0,0,0,0,0,0,0,0,0,0,0,0,0,0,0,0,0,0,0,0,0,0,0,0,0,0,0,0,0,0,0,-4.1952,-4.1954,0,-4.2121,-4.2123,-4.2124,-4.2164,-4.2163,-4.2161,-4.216,-4.2323,-4.2328,-4.2334,0,0,0,0,0,0,0,0,0,0,0,0,0,-4.1657,-4.1662,-4.1952,-4.1954,-4.1956,-4.212,-4.2123,-4.2125,-4.2164,-4.2163,-4.2161,-4.216,-4.2321,-4.2328,-4.2334,0,0,0,0,0,0,0,0,0,0,0,0,0,-4.1801,-4.1664,-4.1952,-4.1996,-4.2001,-4.212,-4.2123,-4.2126,-4.2164,-4.2163,-4.2161,-4.2159,-4.2319,-4.2327,-4.2335,-4.2418,0,0,-4.236,-4.2363,0,0,0,0,0,0,0,0,-4.1793,-4.1812,-4.1987,-4.1993,-4.1999,-4.212,-4.2078,-4.2223,-4.2165,-4.2102,-4.216,-4.2158,-4.2256,-4.2269,-4.2304,-4.2426,-4.2433,-4.236,-4.2365,-4.2369,-4.2371,0,0,0,0,0,0,0,-4.1783,-4.1805,-4.2018,-4.199,-4.1997,-4.2005,-4.2023,-4.2106,-4.2186,-4.2107,-4.2111,-4.2131,-4.2259,-4.2296,-4.2308,-4.2435,-4.236,-4.2367,-4.2372,-4.2375,-4.2637,-4.2639,0,0,0,0,0,0,-4.1766,-4.1796,-4.2013,-4.2023,-4.189,-4.2012,-4.2032,-4.2083,-4.2185,-4.22,-4.2132,-4.2132,-4.2283,-4.2299,-4.2314,-4.242,-4.2369,-4.2376,-4.2381,-4.2635,-4.2637,-4.264,0,0,0,0,0,0,-4.176,-4.1785,-4.2006,-4.1911,-4.194,-4.2019,-4.2074,-4.2087,-4.2124,-4.2204,-4.2218,-4.2156,-4.2283,-4.2303,-4.2394,-4.2426,-4.238,-4.2387,-4.2632,-4.2636,-4.2639,-4.2631,0,0,0,0,0,0,-4.1751,-4.1783,-4.1816,-4.1912,-4.1945,-4.2085,-4.2077,-4.2091,-4.2139,-4.2141,-4.223,-4.2243,-4.2283,-4.2381,-4.2402,-4.2436,-4.2393,-4.263,-4.2634,-4.2638,-4.2629,-4.2634,-4.2638,0,0,0,0,0,-4.174,-4.1805,-4.1818,-4.1844,-4.1989,-4.2086,-4.2105,-4.2152,-4.2142,-4.2176,-4.2228,-4.224,-4.242,-4.239,-4.2413,-4.2451,-4.2628,-4.2633,-4.2637,-4.2627,-4.2633,-4.2638,0,0,0,0,0,0,-4.1707,-4.1818,-4.1833,-4.1931,-4.2,-4.2093,-4.2137,-4.2157,-4.2227,-4.2225,-4.2278,-4.2298,-4.2385,-4.2427,-4.2392,-4.2539,-4.2523,-4.2533,-4.2508,-4.2514,-4.2519,-4.2505,-4.24,0,0,0,0,0,-4.1712,-4.1784,-4.1876,-4.1953,-4.1988,-4.2057,-4.2101,-4.2132,-4.2203,-4.2231,-4.229,-4.2356,-4.2428,-4.2474,-4.2544,-4.2637,-4.2656,-4.2674,-4.2679,-4.2682,-4.2689,-4.2742,-4.2751,-4.2655,-4.2655,-4.2655,0,0,-4.172,-4.179,-4.1832,-4.1949,-4.2005,-4.2078,-4.208,-4.2155,-4.2209,-4.2242,-4.2332,-4.2378,-4.2455,-4.2548,-4.2592,-4.2586,-4.2721,-4.2688,-4.269,-4.2695,-4.2748,-4.2757,-4.2765,-4.2658,-4.2658,-4.2657,0,0,-4.1773,-4.1834,-4.1906,-4.1964,-4.2052,-4.2098,-4.2116,-4.2208,-4.224,-4.2333,-4.236,-4.2423,-4.2545,-4.2601,-4.2644,-4.2724,-4.2738,-4.2745,-4.2768,-4.2819,-4.2827,-4.2834,-4.2862,-4.2871,-4.2752,-4.2752,-4.2752,0,-4.1772,-4.1884,-4.1939,-4.2016,-4.2066,-4.2105,-4.2177,-4.223,-4.2334,-4.2367,-4.2361,-4.2518,-4.2572,-4.2679,-4.2699,-4.2734,-4.2754,-4.2734,-4.2822,-4.283,-4.2837,-4.2864,-4.2875,-4.2752,-4.2752,-4.2752,-4.2752,0,-4.1879,-4.1957,-4.2004,-4.2109,-4.2165,-4.2239,-4.2303,-4.2353,-4.2381,-4.2428,-4.2522,-4.259,-4.2676,-4.2704,-4.273,-4.2816,-4.281,-4.2812,-4.2797,-4.2845,-4.2872,-4.2883,-4.2753,-4.2753,-4.2753,-4.2753,0,0,-4.191,-4.205,-4.2066,-4.2116,-4.2217,-4.2277,-4.2353,-4.2442,-4.2483,-4.2555,-4.2619,-4.2724,-4.2729,-4.2779,-4.2811,-4.2857,-4.2916,-4.2854,-4.2856,-4.2862,-4.3015,-4.3012,-4.3023,-4.2928,-4.293,-4.2932,-4.3008,0,-4.1975,-4.2116,-4.217,-4.2283,-4.2355,-4.2395,-4.2461,-4.253,-4.2577,-4.2643,-4.2694,-4.2768,-4.2768,-4.2798,-4.2846,-4.2899,-4.2947,-4.2894,-4.2986,-4.2988,-4.2963,-4.3037,-4.3033,-4.3102,-4.3019,-4.3021,-4.3022,0,-4.2069,-4.2147,-4.2269,-4.2365,-4.2398,-4.2456,-4.2543,-4.2608,-4.2686,-4.2717,-4.2776,-4.2807,-4.2887,-4.287,-4.298,-4.2942,-4.2984,-4.3016,-4.302,-4.3028,-4.3006,-4.3046,-4.3125,-4.3134,-4.3039,-4.3038,-4.3037,0,-4.208,-4.2215,-4.2306,-4.2347,-4.2462,-4.2503,-4.2551,-4.263,-4.268,-4.2755,-4.2789,-4.2871,-4.2915,-4.2977,-4.3029,-4.3012,-4.3135,-4.3121,-4.3161,-4.3159,-4.3182,-4.3179,-4.3267,-4.3211,-4.3211,-4.3211,-4.3211,0,-4.2145,-4.2218,-4.2313,-4.2369,-4.2452,-4.2513,-4.2593,-4.2644,-4.2714,-4.2779,-4.2818,-4.2877,-4.2944,-4.3012,-4.3053,-4.3138,-4.3158,-4.3184,-4.3193,-4.3179,-4.3176,-4.3205,-4.3201,-4.3214,-4.3213,-4.3213,-4.3212,0,-4.217,-4.2237,-4.2339,-4.2442,-4.2469,-4.2526,-4.2612,-4.2667,-4.2718,-4.28,-4.2822,-4.29,-4.2983,-4.3043,-4.3147,-4.3175,-4.3266,-4.3276,-4.324,-4.3245,-4.3281,-4.3276,-4.3388,-4.3406,-4.334,-4.334,-4.3341,0,-4.2206,-4.2264,-4.2375,-4.2424,-4.2474,-4.2551,-4.2605,-4.2668,-4.2721,-4.2819,-4.2862,-4.2948,-4.302,-4.315,-4.3214,-4.3296,-4.3307,-4.3341,-4.3319,-4.3304,-4.3307,-4.3302,-4.3308,-4.3343,-4.3343,-4.3344,-4.3344,0,-4.2264,-4.2296,-4.2373,-4.2464,-4.2528,-4.2601,-4.2674,-4.2711,-4.2787,-4.2845,-4.2933,-4.2989,-4.31,-4.3185,-4.3273,-4.3321,-4.3345,-4.3352,-4.3365,-4.335,-4.3327,-4.3339,-4.3248,-4.3348,-4.3347,-4.3347,-4.3347,-4.3347,-4.2295,-4.235,-4.2437,-4.2523,-4.2586,-4.2655,-4.2713,-4.2773,-4.2848,-4.2946,-4.2978,-4.3068,-4.3148,-4.3271,-4.332,-4.3391,-4.3389,-4.3408,-4.3412,-4.3416,-4.3415,-4.3318,-4.3407,-4.3407,-4.3407,-4.3407,-4.3407,0,-4.2355,-4.2415,-4.2493,-4.2598,-4.2665,-4.2688,-4.2771,-4.2825,-4.2905,-4.298,-4.3052,-4.3153,-4.3237,-4.331,-4.3396,-4.3439,-4.3452,-4.3459,-4.3455,-4.3466,-4.3412,-4.3392,-4.3447,-4.3447,-4.3447,-4.3447,-4.3447,-4.3447,-4.2393,-4.2487,-4.253,-4.2655,-4.2714,-4.2806,-4.2852,-4.2915,-4.2975,-4.3088,-4.3159,-4.3208,-4.3282,-4.3376,-4.3453,-4.3472,-4.3502,-4.3506,-4.3528,-4.3475,-4.347,-4.3465,-4.3446,-4.3512,-4.3513,-4.3576,-4.3577,-4.3577]},{"header":{"parameterUnit":"m.s-1","parameterCategory":1,"la1":30.2991,"la2":30.254,"lo1":-89.0895,"lo2":-89.0444,"dy":0.0017,"dx":0.0017,"nx":28,"ny":28,"refTime":"2025-07-29T03:00:00:Z","depth":0,"parameterNumber":3,"parameterNumberName":"V-component_of_WINDS"},"data":[0,0,0,0,0,0,0,0,0,0,0,0,0,0,0,0,0,0,0,0,0,0,0,0,0,0,0,0,0,0,0,0,0,0,0,0,0,0,0,0,0,0,0,0,0,0,0,0,0,0,0,0,0,0,0,0,0,0,0.7131,0.7132,0,0.7182,0.7183,0.7183,0.7215,0.7215,0.7216,0.7216,0.7264,0.7265,0.7266,0,0,0,0,0,0,0,0,0,0,0,0,0,0.7059,0.7061,0.7131,0.7132,0.7132,0.7182,0.7183,0.7183,0.7215,0.7215,0.7216,0.7216,0.7263,0.7265,0.7266,0,0,0,0,0,0,0,0,0,0,0,0,0,0.7098,0.7061,0.7131,0.7154,0.7157,0.7182,0.7183,0.7184,0.7215,0.7215,0.7216,0.7216,0.7263,0.7265,0.7266,0.7271,0,0,0.7271,0.7272,0,0,0,0,0,0,0,0,0.7096,0.7101,0.715,0.7153,0.7156,0.7193,0.7175,0.7213,0.7215,0.7193,0.7216,0.7216,0.724,0.7243,0.7252,0.7273,0.7275,0.7271,0.7272,0.7273,0.7274,0,0,0,0,0,0,0,0.7093,0.7099,0.7151,0.7151,0.7154,0.7162,0.7167,0.7182,0.7214,0.7195,0.7197,0.7203,0.7241,0.725,0.7253,0.7276,0.7271,0.7273,0.7274,0.7275,0.7305,0.7305,0,0,0,0,0,0,0.7087,0.7096,0.715,0.7153,0.7126,0.7163,0.7169,0.718,0.7214,0.7219,0.7203,0.7204,0.7247,0.7251,0.7255,0.7264,0.7273,0.7275,0.7276,0.7305,0.7305,0.7305,0,0,0,0,0,0,0.7086,0.7092,0.7148,0.7125,0.7133,0.7164,0.7176,0.7181,0.7191,0.722,0.7225,0.7207,0.7248,0.7253,0.7267,0.7266,0.7275,0.7277,0.7305,0.7305,0.7305,0.728,0,0,0,0,0,0,0.7083,0.7091,0.7093,0.7125,0.7134,0.7159,0.7176,0.7182,0.7194,0.7196,0.7225,0.723,0.7248,0.7265,0.7269,0.7268,0.7278,0.7305,0.7305,0.7305,0.7281,0.7279,0.7277,0,0,0,0,0,0.7081,0.7083,0.7093,0.7099,0.7138,0.7159,0.7164,0.7187,0.7194,0.7196,0.7215,0.7229,0.7266,0.7266,0.7271,0.7271,0.7306,0.7305,0.7305,0.7282,0.7279,0.7277,0,0,0,0,0,0,0.7048,0.7087,0.7099,0.7112,0.7132,0.7165,0.7168,0.7183,0.72,0.7202,0.7228,0.7234,0.7246,0.726,0.726,0.7278,0.7287,0.7288,0.7268,0.7266,0.7264,0.726,0.728,0,0,0,0,0,0.7042,0.7058,0.7091,0.7099,0.7109,0.7137,0.7147,0.7163,0.7184,0.7192,0.7213,0.7232,0.7248,0.7258,0.7274,0.7284,0.7291,0.7286,0.7284,0.7282,0.7282,0.729,0.7288,0.7303,0.7303,0.7303,0,0,0.703,0.7054,0.7061,0.7093,0.711,0.7125,0.7143,0.7157,0.7168,0.7194,0.721,0.7225,0.7249,0.7261,0.7268,0.7273,0.728,0.7282,0.728,0.7281,0.7289,0.7288,0.7286,0.7303,0.7303,0.7303,0,0,0.7016,0.7036,0.7045,0.7063,0.7091,0.711,0.7112,0.7143,0.7155,0.7171,0.7192,0.7205,0.7231,0.7248,0.726,0.7255,0.7268,0.726,0.7249,0.7256,0.7254,0.7253,0.7252,0.7252,0.726,0.7259,0.7259,0,0.6997,0.7021,0.7048,0.7062,0.7075,0.7102,0.7111,0.7127,0.7157,0.7166,0.7172,0.7208,0.7226,0.7243,0.7242,0.7251,0.7254,0.7256,0.7253,0.7252,0.7252,0.7251,0.725,0.7258,0.7258,0.7258,0.7259,0,0.6997,0.7013,0.7018,0.7049,0.7063,0.7075,0.7103,0.7114,0.7129,0.7148,0.7165,0.7187,0.7209,0.7215,0.7229,0.7235,0.7238,0.7248,0.7258,0.7248,0.7248,0.7248,0.7256,0.7257,0.7257,0.7258,0,0,0.6961,0.7009,0.701,0.7026,0.7059,0.7072,0.7085,0.7109,0.7118,0.7139,0.7151,0.7174,0.7185,0.7198,0.7215,0.7221,0.7217,0.7231,0.7232,0.7228,0.7226,0.7218,0.7217,0.7227,0.7227,0.7227,0.7224,0,0.6951,0.6978,0.7004,0.7021,0.7037,0.7064,0.7075,0.7097,0.7115,0.7131,0.7151,0.7167,0.718,0.7188,0.7196,0.7216,0.7217,0.7217,0.7238,0.7238,0.7231,0.7217,0.7208,0.7204,0.7224,0.7224,0.7224,0,0.6943,0.6966,0.6985,0.7019,0.7027,0.7037,0.7062,0.7077,0.7102,0.7115,0.7132,0.715,0.7166,0.7175,0.7197,0.7196,0.7206,0.7218,0.7218,0.7221,0.723,0.7218,0.7203,0.7202,0.7224,0.7224,0.7224,0,0.6915,0.695,0.6967,0.6979,0.7019,0.7026,0.7043,0.7069,0.7082,0.7104,0.7113,0.7135,0.7147,0.7164,0.7188,0.7192,0.7207,0.7218,0.7218,0.7218,0.7219,0.7218,0.7205,0.7226,0.7226,0.7226,0.7226,0,0.6901,0.6912,0.6955,0.6965,0.6978,0.7008,0.702,0.7039,0.7063,0.7077,0.7101,0.7113,0.7145,0.7161,0.718,0.7196,0.7201,0.7211,0.7216,0.7209,0.7208,0.7215,0.7216,0.7226,0.7226,0.7226,0.7226,0,0.6871,0.69,0.692,0.6958,0.6968,0.6976,0.7008,0.7019,0.704,0.7058,0.7063,0.7096,0.7117,0.7143,0.7171,0.7184,0.7198,0.7205,0.7189,0.7192,0.7191,0.719,0.7181,0.7181,0.7203,0.7202,0.7202,0,0.686,0.6869,0.691,0.6922,0.6939,0.6957,0.6972,0.7003,0.7017,0.7048,0.7055,0.7079,0.7099,0.713,0.7156,0.7178,0.7186,0.7182,0.7189,0.7183,0.7186,0.7185,0.7187,0.7179,0.7178,0.7178,0.7178,0,0.6837,0.6852,0.6873,0.69,0.6917,0.6939,0.6962,0.697,0.7006,0.702,0.7043,0.7059,0.709,0.7112,0.7139,0.7155,0.7172,0.7176,0.7177,0.7169,0.716,0.7165,0.7183,0.7175,0.7176,0.7176,0.7176,0.7176,0.6816,0.6827,0.6857,0.688,0.6902,0.6923,0.6936,0.696,0.698,0.7009,0.7026,0.7048,0.7075,0.7113,0.7129,0.7147,0.7153,0.7155,0.7155,0.7155,0.7153,0.7158,0.7152,0.7152,0.7152,0.7152,0.7152,0,0.6795,0.6817,0.6838,0.6871,0.6889,0.6907,0.6934,0.6948,0.6968,0.6993,0.7013,0.704,0.7063,0.7092,0.7117,0.7125,0.7134,0.7131,0.713,0.7134,0.7146,0.7142,0.7124,0.7124,0.7124,0.7124,0.7124,0.7124,0.6786,0.6805,0.6824,0.6854,0.6876,0.6899,0.6913,0.6934,0.6954,0.6984,0.7004,0.7024,0.705,0.7078,0.71,0.7108,0.7116,0.711,0.712,0.713,0.7133,0.7135,0.7132,0.7112,0.7112,0.7108,0.7107,0.7107]}]]